Location: Newark
(48.6461°N, 4.3644°W)
Time: 12:54:13
(UTC+00:00)

STARLINK 1051 - Pass Details

Date: 12 December 2019
Orbit: 347 x 352 km, 53.0° (Epoch: 18 January)

Event Time Altitude Azimuth Distance (km) Brightness Sun altitude
Exits shadow 05:39:13 12° 176° (S) 1,291 5.7 -22.2°
Drops below altitude 10° 05:39:31 10° 172° (S) 1,386 5.9 -22.1°
Sets 05:41:52 0° 155° (SSE) 2,228 7.2 -21.8°
